EJM110 KHEF-MMUN

Flight info

Callsign EJM110
Flight time 3h 13m
Altitude 40000
Route GABBE3 RRSIN DCT GSO Q75 ENEME DCT EVANZ Q109 KNOST M215 PISAD UM215 NUDIS DCT VOMAR VOMAR1A
Aircraft CL60/M-SBDE1E2E3FGHIJ1J4J5J7M3RWXYZ/LB1V1D1

Departure

Time 2026-05-08 17:10
Airport Manassas Regional Airport/Harry P. Davis Field (KHEF)

Arrival

Time 2026-05-08 20:23
Airport Cancún International Airport (MMUN)
Time Latitude Longitude Altitude Speed Heading
2026-05-08 16:37 38.72471 -77.51115 185 ft 0 kts 206°
2026-05-08 17:06 38.72468 -77.51117 185 ft 1 kts 209°
2026-05-08 17:06 38.72453 -77.51144 185 ft 5 kts 242°
2026-05-08 17:06 38.72438 -77.51200 185 ft 7 kts 286°
2026-05-08 17:06 38.72487 -77.51244 186 ft 9 kts 330°
2026-05-08 17:07 38.72551 -77.51291 188 ft 11 kts 330°
2026-05-08 17:07 38.72618 -77.51338 189 ft 11 kts 331°
2026-05-08 17:07 38.72694 -77.51393 190 ft 13 kts 330°
2026-05-08 17:07 38.72765 -77.51444 192 ft 11 kts 330°
2026-05-08 17:08 38.72840 -77.51497 193 ft 13 kts 330°
2026-05-08 17:08 38.72897 -77.51564 194 ft 11 kts 269°
2026-05-08 17:08 38.72856 -77.51667 193 ft 14 kts 240°
2026-05-08 17:08 38.72802 -77.51790 193 ft 15 kts 241°
2026-05-08 17:09 38.72749 -77.51862 193 ft 10 kts 153°
2026-05-08 17:09 38.72720 -77.51842 192 ft 23 kts 150°
2026-05-08 17:09 38.72259 -77.51509 185 ft 125 kts 151°
2026-05-08 17:09 38.71289 -77.50820 372 ft 183 kts 153°
2026-05-08 17:10 38.70128 -77.50041 1220 ft 199 kts 156°
2026-05-08 17:10 38.68796 -77.49785 2283 ft 198 kts 198°
2026-05-08 17:10 38.67703 -77.50761 3279 ft 206 kts 237°
2026-05-08 17:10 38.66915 -77.52409 4288 ft 225 kts 242°
2026-05-08 17:11 38.66129 -77.54137 5494 ft 234 kts 242°
2026-05-08 17:11 38.65303 -77.55935 6602 ft 246 kts 242°
2026-05-08 17:11 38.64424 -77.57823 7866 ft 251 kts 242°
2026-05-08 17:11 38.63530 -77.59712 9121 ft 256 kts 242°
2026-05-08 17:12 38.62585 -77.61646 10243 ft 267 kts 239°
2026-05-08 17:12 38.61219 -77.63397 11077 ft 295 kts 218°
2026-05-08 17:12 38.59201 -77.64275 12000 ft 323 kts 191°
2026-05-08 17:12 38.56913 -77.64366 12939 ft 336 kts 188°
2026-05-08 17:13 38.54557 -77.64413 13934 ft 342 kts 189°
2026-05-08 17:13 38.52162 -77.64467 14938 ft 347 kts 189°
2026-05-08 17:13 38.49760 -77.64523 15890 ft 352 kts 189°
2026-05-08 17:13 38.47305 -77.64580 16840 ft 355 kts 190°
2026-05-08 17:14 38.44829 -77.64638 17803 ft 357 kts 190°
2026-05-08 17:14 38.42344 -77.64701 18602 ft 363 kts 191°
2026-05-08 17:14 38.39792 -77.64767 19404 ft 367 kts 191°
2026-05-08 17:14 38.37227 -77.64831 20274 ft 369 kts 192°
2026-05-08 17:15 38.34657 -77.64896 21061 ft 372 kts 192°
2026-05-08 17:15 38.32035 -77.65028 21750 ft 369 kts 199°
2026-05-08 17:15 38.29670 -77.65857 22492 ft 348 kts 216°
2026-05-08 17:15 38.27655 -77.67488 23173 ft 334 kts 229°
2026-05-08 17:16 38.25886 -77.69389 23835 ft 336 kts 230°
2026-05-08 17:16 38.24105 -77.71304 24517 ft 338 kts 231°
2026-05-08 17:16 38.22298 -77.73242 25192 ft 339 kts 231°
2026-05-08 17:16 38.20495 -77.75175 25762 ft 341 kts 232°
2026-05-08 17:17 38.18664 -77.77137 26353 ft 343 kts 231°
2026-05-08 17:17 38.16842 -77.79086 26904 ft 344 kts 232°
2026-05-08 17:17 38.15008 -77.81054 27218 ft 352 kts 232°
2026-05-08 17:17 38.13108 -77.83092 27490 ft 360 kts 232°
2026-05-08 17:18 38.11166 -77.85169 27862 ft 365 kts 232°
2026-05-08 17:18 38.09205 -77.87260 28306 ft 366 kts 232°
2026-05-08 17:18 38.07264 -77.89327 28768 ft 367 kts 232°
2026-05-08 17:18 38.05292 -77.91425 29236 ft 367 kts 232°
2026-05-08 17:19 38.03360 -77.93478 29702 ft 366 kts 233°
2026-05-08 17:19 38.01390 -77.95573 30080 ft 367 kts 233°
2026-05-08 17:19 37.99419 -77.97669 30420 ft 369 kts 232°
2026-05-08 17:19 37.97433 -77.99779 30716 ft 372 kts 232°
2026-05-08 17:20 37.95439 -78.01897 30981 ft 375 kts 232°
2026-05-08 17:20 37.93438 -78.04020 31274 ft 377 kts 232°
2026-05-08 17:20 37.91421 -78.06157 31575 ft 378 kts 232°
2026-05-08 17:20 37.89383 -78.08316 31825 ft 380 kts 232°
2026-05-08 17:21 37.87349 -78.10469 32072 ft 382 kts 232°
2026-05-08 17:21 37.85318 -78.12616 32295 ft 384 kts 232°
2026-05-08 17:21 37.83253 -78.14798 32517 ft 385 kts 232°
2026-05-08 17:21 37.81177 -78.16989 32727 ft 386 kts 232°
2026-05-08 17:22 37.79108 -78.19171 32973 ft 386 kts 232°
2026-05-08 17:22 37.77034 -78.21358 33156 ft 388 kts 232°
2026-05-08 17:22 37.74925 -78.23581 33325 ft 388 kts 232°
2026-05-08 17:22 37.72870 -78.25738 33680 ft 385 kts 233°
2026-05-08 17:23 37.70787 -78.27927 33885 ft 385 kts 233°
2026-05-08 17:23 37.68716 -78.30104 34049 ft 385 kts 233°
2026-05-08 17:23 37.66639 -78.32285 34210 ft 385 kts 232°
2026-05-08 17:23 37.64558 -78.34469 34493 ft 385 kts 233°
2026-05-08 17:24 37.62474 -78.36652 34619 ft 383 kts 232°
2026-05-08 17:24 37.60442 -78.38780 34963 ft 382 kts 233°
2026-05-08 17:24 37.58369 -78.40951 35153 ft 382 kts 232°
2026-05-08 17:24 37.56326 -78.43087 35377 ft 381 kts 232°
2026-05-08 17:25 37.54298 -78.45207 35584 ft 380 kts 233°
2026-05-08 17:25 37.52249 -78.47349 35782 ft 379 kts 232°
2026-05-08 17:25 37.50227 -78.49458 36007 ft 377 kts 232°
2026-05-08 17:25 37.48181 -78.51592 36161 ft 377 kts 232°
2026-05-08 17:26 37.46139 -78.53721 36275 ft 378 kts 232°
2026-05-08 17:26 37.44116 -78.55814 36414 ft 378 kts 232°
2026-05-08 17:26 37.42046 -78.57952 36551 ft 378 kts 232°
2026-05-08 17:26 37.40005 -78.60059 36692 ft 377 kts 232°
2026-05-08 17:27 37.37956 -78.62172 36829 ft 377 kts 232°
2026-05-08 17:27 37.35922 -78.64268 36955 ft 377 kts 232°
2026-05-08 17:27 37.31848 -78.68465 37142 ft 380 kts 231°
2026-05-08 17:28 37.29785 -78.70586 37301 ft 379 kts 232°
2026-05-08 17:28 37.27740 -78.72686 37515 ft 377 kts 231°
2026-05-08 17:28 37.25686 -78.74794 37686 ft 376 kts 231°
2026-05-08 17:28 37.23627 -78.76906 37830 ft 376 kts 232°
2026-05-08 17:29 37.21598 -78.78987 37954 ft 376 kts 231°
2026-05-08 17:29 37.19562 -78.81073 38082 ft 376 kts 232°
2026-05-08 17:29 37.15491 -78.85241 38316 ft 376 kts 231°
2026-05-08 17:30 37.13461 -78.87315 38455 ft 375 kts 232°
2026-05-08 17:30 37.11424 -78.89396 38566 ft 375 kts 232°
2026-05-08 17:30 37.09401 -78.91460 38702 ft 373 kts 231°
2026-05-08 17:30 37.07400 -78.93501 38844 ft 372 kts 231°
2026-05-08 17:31 37.03354 -78.97627 38993 ft 373 kts 231°
2026-05-08 17:31 36.99291 -79.01764 39124 ft 374 kts 232°
2026-05-08 17:32 36.95250 -79.05870 39327 ft 373 kts 231°
2026-05-08 17:32 36.93251 -79.07918 39445 ft 371 kts 232°
2026-05-08 17:32 36.91230 -79.09994 39545 ft 370 kts 232°
2026-05-08 17:33 36.87256 -79.14073 39657 ft 370 kts 232°
2026-05-08 17:33 36.83266 -79.18162 39761 ft 370 kts 231°
2026-05-08 17:34 36.79263 -79.22258 39915 ft 368 kts 232°
2026-05-08 17:34 36.75269 -79.26340 40005 ft 368 kts 232°
2026-05-08 17:35 36.71287 -79.30405 40055 ft 369 kts 232°
2026-05-08 17:35 36.67288 -79.34480 40065 ft 369 kts 232°
2026-05-08 17:36 36.63282 -79.38557 40066 ft 370 kts 232°
2026-05-08 17:36 36.59282 -79.42622 40064 ft 370 kts 232°
2026-05-08 17:37 36.55253 -79.46711 40055 ft 370 kts 232°
2026-05-08 17:37 36.51255 -79.50762 40053 ft 371 kts 233°
2026-05-08 17:38 36.47224 -79.54840 40060 ft 371 kts 232°
2026-05-08 17:38 36.43227 -79.58880 40056 ft 371 kts 232°
2026-05-08 17:39 36.39220 -79.62922 40063 ft 370 kts 232°
2026-05-08 17:39 36.35196 -79.66979 40074 ft 371 kts 232°
2026-05-08 17:40 36.31158 -79.71044 40071 ft 372 kts 231°
2026-05-08 17:40 36.27107 -79.75116 40066 ft 374 kts 232°
2026-05-08 17:41 36.23024 -79.79215 40065 ft 375 kts 231°
2026-05-08 17:41 36.18953 -79.83292 40066 ft 375 kts 232°
2026-05-08 17:42 36.14997 -79.87248 40079 ft 373 kts 232°
2026-05-08 17:42 36.10947 -79.91295 40071 ft 374 kts 232°
2026-05-08 17:43 36.06882 -79.95345 40080 ft 373 kts 231°
2026-05-08 17:43 36.02309 -79.98756 40072 ft 396 kts 219°
2026-05-08 17:44 35.97136 -80.01331 40072 ft 397 kts 217°
2026-05-08 17:44 35.91987 -80.03873 40069 ft 397 kts 217°
2026-05-08 17:45 35.86805 -80.06430 40076 ft 398 kts 217°
2026-05-08 17:45 35.81648 -80.08971 40081 ft 398 kts 217°
2026-05-08 17:46 35.76481 -80.11513 40079 ft 399 kts 217°
2026-05-08 17:46 35.71286 -80.14064 40081 ft 398 kts 217°
2026-05-08 17:47 35.66156 -80.16582 40071 ft 398 kts 217°
2026-05-08 17:47 35.60970 -80.19123 40073 ft 397 kts 218°
2026-05-08 17:48 35.55803 -80.21651 40079 ft 396 kts 218°
2026-05-08 17:48 35.50649 -80.24170 40076 ft 397 kts 218°
2026-05-08 17:49 35.45499 -80.26683 40089 ft 397 kts 218°
2026-05-08 17:49 35.40314 -80.29211 40081 ft 397 kts 217°
2026-05-08 17:50 35.35183 -80.31705 40085 ft 395 kts 217°
2026-05-08 17:50 35.30035 -80.34206 40070 ft 393 kts 218°
2026-05-08 17:51 35.24953 -80.36673 40076 ft 393 kts 218°
2026-05-08 17:51 35.19825 -80.39159 40065 ft 393 kts 217°
2026-05-08 17:52 35.14692 -80.41644 40070 ft 392 kts 217°
2026-05-08 17:53 35.07017 -80.45353 40073 ft 392 kts 218°
2026-05-08 17:53 35.01878 -80.47832 40064 ft 392 kts 218°
2026-05-08 17:54 34.96777 -80.50289 40068 ft 392 kts 218°
2026-05-08 17:54 34.91674 -80.52743 40066 ft 391 kts 218°
2026-05-08 17:55 34.86594 -80.55184 40068 ft 391 kts 218°
2026-05-08 17:55 34.81537 -80.57610 40064 ft 391 kts 218°
2026-05-08 17:56 34.76471 -80.60039 40062 ft 391 kts 218°
2026-05-08 17:56 34.71368 -80.62480 40065 ft 391 kts 218°
2026-05-08 17:57 34.66331 -80.64983 40066 ft 381 kts 222°
2026-05-08 17:57 34.64082 -80.66569 40067 ft 368 kts 228°
2026-05-08 17:57 34.62097 -80.68451 40068 ft 359 kts 234°
2026-05-08 17:58 34.58355 -80.72517 40069 ft 360 kts 234°
2026-05-08 17:58 34.54611 -80.76581 40065 ft 361 kts 234°
2026-05-08 17:59 34.50827 -80.80680 40066 ft 363 kts 234°
2026-05-08 17:59 34.47012 -80.84806 40061 ft 365 kts 234°
2026-05-08 18:00 34.43184 -80.88940 40060 ft 365 kts 234°
2026-05-08 18:00 34.37446 -80.95126 40065 ft 367 kts 234°
2026-05-08 18:01 34.33592 -80.99197 40072 ft 372 kts 231°
2026-05-08 18:01 34.31412 -81.01031 40072 ft 383 kts 226°
2026-05-08 18:01 34.29025 -81.02555 40070 ft 396 kts 219°
2026-05-08 18:02 34.26389 -81.03744 40071 ft 409 kts 214°
2026-05-08 18:02 34.23664 -81.04789 40077 ft 410 kts 213°
2026-05-08 18:02 34.18200 -81.06883 40070 ft 410 kts 213°
2026-05-08 18:03 34.12730 -81.08981 40075 ft 410 kts 213°
2026-05-08 18:03 34.07252 -81.11077 40075 ft 409 kts 213°
2026-05-08 18:04 34.01765 -81.13178 40077 ft 409 kts 213°
2026-05-08 18:04 33.96337 -81.15254 40076 ft 410 kts 213°
2026-05-08 18:05 33.90886 -81.17336 40082 ft 410 kts 213°
2026-05-08 18:05 33.85441 -81.19411 40078 ft 410 kts 213°
2026-05-08 18:06 33.79957 -81.21500 40065 ft 409 kts 213°
2026-05-08 18:06 33.74517 -81.23570 40061 ft 410 kts 213°
2026-05-08 18:07 33.69037 -81.25654 40049 ft 410 kts 213°
2026-05-08 18:07 33.63578 -81.27726 40042 ft 410 kts 213°
2026-05-08 18:08 33.58098 -81.29804 40046 ft 411 kts 213°
2026-05-08 18:08 33.52587 -81.31890 40037 ft 410 kts 213°
2026-05-08 18:09 33.47120 -81.33956 40033 ft 410 kts 213°
2026-05-08 18:09 33.41656 -81.36021 40039 ft 410 kts 213°
2026-05-08 18:10 33.36165 -81.38091 40047 ft 409 kts 213°
2026-05-08 18:10 33.30706 -81.40147 40047 ft 409 kts 213°
2026-05-08 18:11 33.25275 -81.42320 40052 ft 405 kts 215°
2026-05-08 18:11 33.19926 -81.44620 40047 ft 405 kts 214°
2026-05-08 18:12 33.14584 -81.46911 40036 ft 405 kts 215°
2026-05-08 18:12 33.09248 -81.49195 40039 ft 405 kts 214°
2026-05-08 18:13 33.03902 -81.51481 40030 ft 404 kts 214°
2026-05-08 18:13 32.98569 -81.53758 40031 ft 403 kts 214°
2026-05-08 18:14 32.93272 -81.56017 40028 ft 403 kts 214°
2026-05-08 18:14 32.87964 -81.58352 40037 ft 401 kts 215°
2026-05-08 18:15 32.82742 -81.60722 40033 ft 401 kts 216°
2026-05-08 18:15 32.77490 -81.63100 40047 ft 401 kts 215°
2026-05-08 18:16 32.72254 -81.65468 40039 ft 402 kts 215°
2026-05-08 18:16 32.66978 -81.67852 40051 ft 404 kts 214°
2026-05-08 18:17 32.61706 -81.70230 40048 ft 405 kts 214°
2026-05-08 18:17 32.56375 -81.72631 40049 ft 407 kts 214°
2026-05-08 18:18 32.51030 -81.75034 40044 ft 408 kts 214°
2026-05-08 18:18 32.45689 -81.77431 40038 ft 409 kts 214°
2026-05-08 18:19 32.40342 -81.79828 40034 ft 409 kts 214°
2026-05-08 18:19 32.34990 -81.82223 40042 ft 408 kts 214°
2026-05-08 18:20 32.29660 -81.84608 40042 ft 409 kts 214°
2026-05-08 18:20 32.24300 -81.87001 40041 ft 410 kts 214°
2026-05-08 18:21 32.18928 -81.89397 40041 ft 410 kts 214°
2026-05-08 18:21 32.13559 -81.91741 40035 ft 414 kts 211°
2026-05-08 18:22 32.08013 -81.93820 40026 ft 414 kts 211°
2026-05-08 18:22 32.02502 -81.95876 40014 ft 414 kts 211°
2026-05-08 18:23 31.96975 -81.97938 40016 ft 414 kts 211°
2026-05-08 18:23 31.91449 -81.99998 40021 ft 415 kts 211°
2026-05-08 18:24 31.85911 -82.02058 40014 ft 417 kts 210°
2026-05-08 18:24 31.80390 -82.04064 40008 ft 418 kts 210°
2026-05-08 18:25 31.74779 -82.06100 40009 ft 418 kts 210°
2026-05-08 18:25 31.69179 -82.08130 40011 ft 418 kts 210°
2026-05-08 18:26 31.63607 -82.10147 40010 ft 418 kts 210°
2026-05-08 18:26 31.57991 -82.12178 40009 ft 418 kts 210°
2026-05-08 18:27 31.53320 -82.13867 40005 ft 419 kts 210°
2026-05-08 18:27 31.46775 -82.16230 40007 ft 420 kts 210°
2026-05-08 18:28 31.41166 -82.18252 40000 ft 420 kts 210°
2026-05-08 18:28 31.35525 -82.20282 40001 ft 421 kts 210°
2026-05-08 18:29 31.29885 -82.22311 40011 ft 422 kts 210°
2026-05-08 18:29 31.24199 -82.24352 40010 ft 422 kts 210°
2026-05-08 18:30 31.18569 -82.26370 40008 ft 421 kts 209°
2026-05-08 18:30 31.12922 -82.28394 40009 ft 421 kts 210°
2026-05-08 18:31 31.07309 -82.30402 40004 ft 422 kts 209°
2026-05-08 18:31 31.01670 -82.32418 40000 ft 423 kts 209°
2026-05-08 18:32 30.95982 -82.34448 39995 ft 424 kts 210°
2026-05-08 18:32 30.90294 -82.36475 39996 ft 423 kts 209°
2026-05-08 18:33 30.84655 -82.38482 39996 ft 423 kts 209°
2026-05-08 18:33 30.78994 -82.40494 39993 ft 422 kts 209°
2026-05-08 18:34 30.73358 -82.42496 39994 ft 422 kts 209°
2026-05-08 18:34 30.67889 -82.44867 39995 ft 410 kts 217°
2026-05-08 18:35 30.62685 -82.47713 39993 ft 411 kts 216°
2026-05-08 18:35 30.57487 -82.50543 39994 ft 411 kts 216°
2026-05-08 18:36 30.52238 -82.53397 39995 ft 412 kts 216°
2026-05-08 18:36 30.47018 -82.56231 39998 ft 412 kts 217°
2026-05-08 18:37 30.41801 -82.59058 39995 ft 413 kts 216°
2026-05-08 18:37 30.36551 -82.61899 40003 ft 413 kts 216°
2026-05-08 18:38 30.31283 -82.64746 40000 ft 413 kts 216°
2026-05-08 18:38 30.26038 -82.67578 40000 ft 414 kts 215°
2026-05-08 18:39 30.20752 -82.70428 39999 ft 416 kts 215°
2026-05-08 18:39 30.15474 -82.73270 39989 ft 417 kts 216°
2026-05-08 18:40 30.10195 -82.76109 39981 ft 418 kts 215°
2026-05-08 18:40 30.04871 -82.78967 39974 ft 418 kts 215°
2026-05-08 18:41 29.99565 -82.81813 39971 ft 417 kts 215°
2026-05-08 18:41 29.94258 -82.84656 39967 ft 416 kts 215°
2026-05-08 18:42 29.88828 -82.87221 39976 ft 430 kts 206°
2026-05-08 18:42 29.83068 -82.88941 39971 ft 434 kts 205°
2026-05-08 18:43 29.77101 -82.90706 39978 ft 435 kts 205°
2026-05-08 18:43 29.71196 -82.92451 39976 ft 434 kts 205°
2026-05-08 18:44 29.65324 -82.94186 39979 ft 434 kts 205°
2026-05-08 18:44 29.59394 -82.95938 39984 ft 433 kts 205°
2026-05-08 18:45 29.53529 -82.97670 39985 ft 434 kts 205°
2026-05-08 18:45 29.47590 -82.99423 39987 ft 436 kts 205°
2026-05-08 18:46 29.41676 -83.01166 39981 ft 437 kts 205°
2026-05-08 18:46 29.35754 -83.02910 39980 ft 438 kts 205°
2026-05-08 18:47 29.29857 -83.04644 39983 ft 438 kts 205°
2026-05-08 18:47 29.23914 -83.06390 39987 ft 437 kts 205°
2026-05-08 18:48 29.18022 -83.08118 39992 ft 438 kts 204°
2026-05-08 18:48 29.12089 -83.09858 39988 ft 439 kts 204°
2026-05-08 18:49 29.06144 -83.11599 39988 ft 440 kts 204°
2026-05-08 18:49 29.00192 -83.13339 39988 ft 440 kts 204°
2026-05-08 18:50 28.94260 -83.15072 39992 ft 440 kts 204°
2026-05-08 18:50 28.88310 -83.16807 39989 ft 440 kts 204°
2026-05-08 18:51 28.82321 -83.18552 39988 ft 439 kts 204°
2026-05-08 18:51 28.76347 -83.20290 39988 ft 439 kts 204°
2026-05-08 18:52 28.70423 -83.22013 39988 ft 440 kts 204°
2026-05-08 18:52 28.64460 -83.23745 39987 ft 441 kts 204°
2026-05-08 18:53 28.58502 -83.25473 39988 ft 441 kts 204°
2026-05-08 18:53 28.52554 -83.27196 39989 ft 441 kts 204°
2026-05-08 18:54 28.46597 -83.28920 39989 ft 441 kts 204°
2026-05-08 18:54 28.40623 -83.30647 39994 ft 441 kts 204°
2026-05-08 18:55 28.31661 -83.33234 39998 ft 443 kts 204°
2026-05-08 18:56 28.25652 -83.34966 39996 ft 444 kts 203°
2026-05-08 18:56 28.19657 -83.36692 40000 ft 444 kts 203°
2026-05-08 18:57 28.13645 -83.38420 39997 ft 443 kts 203°
2026-05-08 18:57 28.07794 -83.40473 40002 ft 433 kts 212°
2026-05-08 18:58 28.02716 -83.43904 39998 ft 418 kts 226°
2026-05-08 18:58 27.98669 -83.48525 39997 ft 407 kts 239°
2026-05-08 18:59 27.95803 -83.53996 39999 ft 400 kts 251°
2026-05-08 18:59 27.93672 -83.59771 39997 ft 400 kts 252°
2026-05-08 19:00 27.91539 -83.65572 39998 ft 400 kts 251°
2026-05-08 19:00 27.89395 -83.71390 39996 ft 400 kts 251°
2026-05-08 19:01 27.87250 -83.77202 39997 ft 400 kts 251°
2026-05-08 19:01 27.85095 -83.83030 39994 ft 400 kts 251°
2026-05-08 19:02 27.82960 -83.88797 39990 ft 401 kts 251°
2026-05-08 19:02 27.80812 -83.94586 39993 ft 400 kts 251°
2026-05-08 19:03 27.78646 -84.00416 39993 ft 400 kts 251°
2026-05-08 19:03 27.76496 -84.06191 39992 ft 400 kts 251°
2026-05-08 19:04 27.74331 -84.11997 39990 ft 400 kts 251°
2026-05-08 19:04 27.72172 -84.17782 39993 ft 400 kts 251°
2026-05-08 19:05 27.69996 -84.23600 39987 ft 400 kts 251°
2026-05-08 19:05 27.67829 -84.29385 39981 ft 400 kts 251°
2026-05-08 19:06 27.65658 -84.35174 39976 ft 400 kts 251°
2026-05-08 19:06 27.63489 -84.40949 39976 ft 400 kts 251°
2026-05-08 19:07 27.61312 -84.46735 39981 ft 400 kts 251°
2026-05-08 19:07 27.59145 -84.52486 39983 ft 399 kts 251°
2026-05-08 19:08 27.56968 -84.58257 39978 ft 400 kts 251°
2026-05-08 19:08 27.54795 -84.64005 39981 ft 399 kts 251°
2026-05-08 19:09 27.52608 -84.69785 39981 ft 399 kts 250°
2026-05-08 19:09 27.50232 -84.75426 39981 ft 403 kts 243°
2026-05-08 19:10 27.46658 -84.80407 39980 ft 413 kts 229°
2026-05-08 19:10 27.42104 -84.84434 39981 ft 418 kts 223°
2026-05-08 19:11 27.37436 -84.88358 39984 ft 419 kts 223°
2026-05-08 19:11 27.32752 -84.92293 39985 ft 420 kts 223°
2026-05-08 19:12 27.28036 -84.96252 39981 ft 420 kts 223°
2026-05-08 19:12 27.23317 -85.00207 39985 ft 420 kts 223°
2026-05-08 19:13 27.18611 -85.04147 39983 ft 420 kts 223°
2026-05-08 19:13 27.13904 -85.08084 39984 ft 420 kts 223°
2026-05-08 19:14 27.09205 -85.12011 39984 ft 420 kts 223°
2026-05-08 19:14 27.04508 -85.15931 39986 ft 421 kts 223°
2026-05-08 19:15 26.99788 -85.19868 39979 ft 421 kts 223°
2026-05-08 19:15 26.95048 -85.23814 39984 ft 421 kts 223°
2026-05-08 19:16 26.90335 -85.27736 39979 ft 421 kts 223°
2026-05-08 19:16 26.85594 -85.31677 39983 ft 422 kts 223°
2026-05-08 19:17 26.80871 -85.35598 39991 ft 423 kts 223°
2026-05-08 19:17 26.76122 -85.39536 39989 ft 424 kts 223°
2026-05-08 19:18 26.71388 -85.43458 39989 ft 424 kts 223°
2026-05-08 19:18 26.66659 -85.47372 39987 ft 424 kts 223°
2026-05-08 19:19 26.61887 -85.51316 39985 ft 425 kts 223°
2026-05-08 19:19 26.57138 -85.55238 39984 ft 425 kts 223°
2026-05-08 19:20 26.52377 -85.59165 39983 ft 426 kts 223°
2026-05-08 19:20 26.47598 -85.63103 39982 ft 427 kts 223°
2026-05-08 19:21 26.42788 -85.67063 39983 ft 428 kts 222°
2026-05-08 19:21 26.37971 -85.71023 39977 ft 428 kts 222°
2026-05-08 19:22 26.33172 -85.74965 39976 ft 427 kts 222°
2026-05-08 19:22 26.28394 -85.78884 39974 ft 427 kts 222°
2026-05-08 19:23 26.23619 -85.82798 39971 ft 427 kts 222°
2026-05-08 19:23 26.18820 -85.86727 39971 ft 429 kts 222°
2026-05-08 19:24 26.14008 -85.90664 39968 ft 430 kts 222°
2026-05-08 19:24 26.09184 -85.94605 39967 ft 430 kts 221°
2026-05-08 19:25 26.04316 -85.98537 39970 ft 431 kts 219°
2026-05-08 19:25 25.99167 -86.02017 39966 ft 434 kts 217°
2026-05-08 19:26 25.93978 -86.05476 39967 ft 434 kts 217°
2026-05-08 19:26 25.88781 -86.08939 39968 ft 436 kts 217°
2026-05-08 19:27 25.83578 -86.12404 39961 ft 436 kts 217°
2026-05-08 19:27 25.78398 -86.15852 39965 ft 436 kts 217°
2026-05-08 19:28 25.73155 -86.19339 39964 ft 436 kts 217°
2026-05-08 19:28 25.67970 -86.22784 39962 ft 435 kts 217°
2026-05-08 19:29 25.62785 -86.26228 39967 ft 434 kts 217°
2026-05-08 19:29 25.57584 -86.29679 39967 ft 435 kts 217°
2026-05-08 19:30 25.52373 -86.33134 39967 ft 435 kts 217°
2026-05-08 19:30 25.47206 -86.36556 39963 ft 435 kts 216°
2026-05-08 19:31 25.41992 -86.40006 39966 ft 435 kts 216°
2026-05-08 19:31 25.36791 -86.43444 39958 ft 436 kts 216°
2026-05-08 19:32 25.31579 -86.46886 39958 ft 435 kts 216°
2026-05-08 19:32 25.26396 -86.50304 39946 ft 435 kts 216°
2026-05-08 19:33 25.21180 -86.53742 39958 ft 435 kts 216°
2026-05-08 19:33 25.15962 -86.57178 39959 ft 436 kts 216°
2026-05-08 19:34 25.10706 -86.60635 39963 ft 436 kts 216°
2026-05-08 19:34 25.05476 -86.64072 39956 ft 437 kts 216°
2026-05-08 19:35 25.00250 -86.67503 39953 ft 438 kts 216°
2026-05-08 19:35 24.95002 -86.70943 39950 ft 438 kts 215°
2026-05-08 19:36 24.89755 -86.74380 39950 ft 438 kts 216°
2026-05-08 19:36 24.84509 -86.77813 39950 ft 438 kts 215°
2026-05-08 19:37 24.79291 -86.81226 39948 ft 438 kts 216°
2026-05-08 19:37 24.74032 -86.84660 39946 ft 439 kts 215°
2026-05-08 19:38 24.68737 -86.88115 39948 ft 440 kts 215°
2026-05-08 19:38 24.63477 -86.91543 39946 ft 440 kts 215°
2026-05-08 19:39 24.58219 -86.94967 39949 ft 440 kts 215°
2026-05-08 19:39 24.52945 -86.98398 39949 ft 440 kts 215°
2026-05-08 19:40 24.47645 -87.01842 39948 ft 440 kts 215°
2026-05-08 19:40 24.42366 -87.05269 39945 ft 441 kts 215°
2026-05-08 19:41 24.37075 -87.08701 39948 ft 441 kts 215°
2026-05-08 19:41 24.31775 -87.12135 39949 ft 442 kts 215°
2026-05-08 19:42 24.26564 -87.15748 39941 ft 440 kts 220°
2026-05-08 19:42 24.21584 -87.19617 39943 ft 440 kts 219°
2026-05-08 19:43 24.16577 -87.23495 39940 ft 440 kts 220°
2026-05-08 19:43 24.11573 -87.27365 39939 ft 440 kts 220°
2026-05-08 19:44 24.06551 -87.31243 39942 ft 440 kts 219°
2026-05-08 19:44 24.01546 -87.35104 39940 ft 440 kts 219°
2026-05-08 19:45 23.96523 -87.38973 39940 ft 441 kts 219°
2026-05-08 19:45 23.91506 -87.42832 39938 ft 441 kts 219°
2026-05-08 19:46 23.86471 -87.46702 39939 ft 441 kts 219°
2026-05-08 19:46 23.78920 -87.52498 39938 ft 442 kts 219°
2026-05-08 19:47 23.73888 -87.56355 39934 ft 442 kts 219°
2026-05-08 19:47 23.68826 -87.60234 39930 ft 442 kts 219°
2026-05-08 19:48 23.63752 -87.64119 39928 ft 442 kts 219°
2026-05-08 19:48 23.58722 -87.67967 39928 ft 442 kts 219°
2026-05-08 19:49 23.53630 -87.71859 39926 ft 442 kts 219°
2026-05-08 19:49 23.48569 -87.75658 39927 ft 444 kts 216°
2026-05-08 19:50 23.42900 -87.78520 39927 ft 452 kts 202°
2026-05-08 19:50 23.36641 -87.79840 39926 ft 460 kts 191°
2026-05-08 19:51 23.30228 -87.80604 39932 ft 461 kts 191°
2026-05-08 19:51 23.23785 -87.81376 39918 ft 462 kts 191°
2026-05-08 19:52 23.17373 -87.82143 39910 ft 462 kts 191°
2026-05-08 19:52 23.10974 -87.82906 39911 ft 461 kts 191°
2026-05-08 19:53 23.04567 -87.83662 39690 ft 452 kts 191°
2026-05-08 19:53 23.01446 -87.84023 38985 ft 449 kts 190°
2026-05-08 19:53 22.98307 -87.84383 37959 ft 453 kts 190°
2026-05-08 19:54 22.95186 -87.84744 36898 ft 457 kts 190°
2026-05-08 19:54 22.91995 -87.85113 35799 ft 462 kts 190°
2026-05-08 19:54 22.88747 -87.85489 34692 ft 465 kts 190°
2026-05-08 19:54 22.85502 -87.85865 33610 ft 467 kts 190°
2026-05-08 19:55 22.82269 -87.86238 32597 ft 467 kts 190°
2026-05-08 19:55 22.79021 -87.86611 31932 ft 461 kts 190°
2026-05-08 19:55 22.75887 -87.86965 31410 ft 453 kts 189°
2026-05-08 19:55 22.72763 -87.87313 30864 ft 445 kts 189°
2026-05-08 19:56 22.69693 -87.87650 30241 ft 435 kts 189°
2026-05-08 19:56 22.66691 -87.87972 29397 ft 426 kts 189°
2026-05-08 19:56 22.63756 -87.88283 28524 ft 418 kts 189°
2026-05-08 19:56 22.60888 -87.88581 27559 ft 412 kts 188°
2026-05-08 19:57 22.58041 -87.88874 26549 ft 408 kts 188°
2026-05-08 19:57 22.55239 -87.89159 25584 ft 402 kts 188°
2026-05-08 19:57 22.52470 -87.89439 24597 ft 398 kts 187°
2026-05-08 19:57 22.49717 -87.89713 23641 ft 392 kts 187°
2026-05-08 19:58 22.47039 -87.89977 22734 ft 387 kts 187°
2026-05-08 19:58 22.44370 -87.90238 22008 ft 385 kts 187°
2026-05-08 19:58 22.41698 -87.90498 21375 ft 380 kts 186°
2026-05-08 19:58 22.39087 -87.90750 20762 ft 376 kts 186°
2026-05-08 19:59 22.36471 -87.91000 20193 ft 370 kts 186°
2026-05-08 19:59 22.33958 -87.91240 19959 ft 365 kts 186°
2026-05-08 19:59 22.31384 -87.91483 19898 ft 368 kts 185°
2026-05-08 19:59 22.28808 -87.91727 19895 ft 369 kts 185°
2026-05-08 20:00 22.26240 -87.91970 19890 ft 371 kts 185°
2026-05-08 20:00 22.23681 -87.92211 19895 ft 371 kts 185°
2026-05-08 20:00 22.21089 -87.92454 19896 ft 371 kts 185°
2026-05-08 20:00 22.18502 -87.92696 19891 ft 371 kts 185°
2026-05-08 20:01 22.15917 -87.92917 19891 ft 371 kts 182°
2026-05-08 20:01 22.13317 -87.92656 19897 ft 372 kts 167°
2026-05-08 20:01 22.10897 -87.91643 19895 ft 374 kts 152°
2026-05-08 20:01 22.08805 -87.89965 19888 ft 376 kts 139°
2026-05-08 20:02 22.06873 -87.88040 19888 ft 376 kts 139°
2026-05-08 20:02 22.04987 -87.86163 19768 ft 364 kts 139°
2026-05-08 20:02 22.03131 -87.84320 19143 ft 362 kts 139°
2026-05-08 20:02 22.01290 -87.82494 18452 ft 361 kts 138°
2026-05-08 20:03 21.99420 -87.80640 17767 ft 359 kts 138°
2026-05-08 20:03 21.97601 -87.78840 17161 ft 356 kts 138°
2026-05-08 20:03 21.95789 -87.77047 16582 ft 352 kts 137°
2026-05-08 20:03 21.93976 -87.75254 15958 ft 349 kts 137°
2026-05-08 20:04 21.92210 -87.73508 15368 ft 346 kts 137°
2026-05-08 20:04 21.90429 -87.71750 14758 ft 343 kts 137°
2026-05-08 20:04 21.88670 -87.70013 14181 ft 339 kts 137°
2026-05-08 20:04 21.86958 -87.68325 13600 ft 336 kts 137°
2026-05-08 20:05 21.85237 -87.66629 12997 ft 333 kts 137°
2026-05-08 20:05 21.83524 -87.64941 12413 ft 329 kts 137°
2026-05-08 20:05 21.81840 -87.63283 11789 ft 328 kts 137°
2026-05-08 20:05 21.80162 -87.61631 11182 ft 326 kts 137°
2026-05-08 20:06 21.78492 -87.59988 10546 ft 325 kts 137°
2026-05-08 20:06 21.76833 -87.58356 9905 ft 323 kts 137°
2026-05-08 20:06 21.75205 -87.56756 9531 ft 305 kts 137°
2026-05-08 20:06 21.73671 -87.55248 9145 ft 292 kts 137°
2026-05-08 20:07 21.72190 -87.53793 8963 ft 281 kts 137°
2026-05-08 20:07 21.70733 -87.52361 8894 ft 284 kts 137°
2026-05-08 20:07 21.69273 -87.50928 8901 ft 283 kts 137°
2026-05-08 20:07 21.67808 -87.49490 8905 ft 283 kts 137°
2026-05-08 20:08 21.66353 -87.48062 8904 ft 283 kts 137°
2026-05-08 20:08 21.64892 -87.46628 8905 ft 283 kts 137°
2026-05-08 20:08 21.63438 -87.45199 8901 ft 284 kts 137°
2026-05-08 20:08 21.61980 -87.43766 8893 ft 283 kts 137°
2026-05-08 20:09 21.60511 -87.42320 8905 ft 280 kts 137°
2026-05-08 20:09 21.59112 -87.40943 8620 ft 273 kts 137°
2026-05-08 20:09 21.57713 -87.39565 8254 ft 270 kts 137°
2026-05-08 20:09 21.56338 -87.38210 7915 ft 265 kts 137°
2026-05-08 20:10 21.54975 -87.36866 7550 ft 262 kts 137°
2026-05-08 20:10 21.53626 -87.35535 7152 ft 260 kts 137°
2026-05-08 20:10 21.52307 -87.34234 6796 ft 257 kts 137°
2026-05-08 20:10 21.50989 -87.32934 6384 ft 256 kts 137°
2026-05-08 20:11 21.49684 -87.31644 6004 ft 253 kts 137°
2026-05-08 20:11 21.48398 -87.30375 5638 ft 250 kts 137°
2026-05-08 20:11 21.47121 -87.29116 5219 ft 249 kts 138°
2026-05-08 20:11 21.45698 -87.28085 4821 ft 247 kts 150°
2026-05-08 20:12 21.44190 -87.27202 4535 ft 240 kts 150°
2026-05-08 20:12 21.42757 -87.26356 4391 ft 228 kts 150°
2026-05-08 20:12 21.41379 -87.25543 4117 ft 224 kts 150°
2026-05-08 20:12 21.40021 -87.24740 3916 ft 218 kts 149°
2026-05-08 20:13 21.38663 -87.23937 3900 ft 221 kts 149°
2026-05-08 20:13 21.37302 -87.23178 3907 ft 222 kts 151°
2026-05-08 20:13 21.35901 -87.22421 3905 ft 221 kts 152°
2026-05-08 20:13 21.34515 -87.21671 3905 ft 222 kts 152°
2026-05-08 20:14 21.33139 -87.20926 3908 ft 222 kts 152°
2026-05-08 20:14 21.31757 -87.20178 3909 ft 221 kts 151°
2026-05-08 20:14 21.30374 -87.19430 3916 ft 221 kts 152°
2026-05-08 20:14 21.28945 -87.18796 3797 ft 222 kts 158°
2026-05-08 20:15 21.27487 -87.18234 3633 ft 221 kts 158°
2026-05-08 20:15 21.26023 -87.17670 3474 ft 221 kts 158°
2026-05-08 20:15 21.24581 -87.17115 3317 ft 215 kts 158°
2026-05-08 20:15 21.23197 -87.16582 3164 ft 210 kts 158°
2026-05-08 20:16 21.21828 -87.16013 3009 ft 208 kts 147°
2026-05-08 20:16 21.20782 -87.14961 2851 ft 206 kts 129°
2026-05-08 20:16 21.19900 -87.13737 2694 ft 205 kts 127°
2026-05-08 20:16 21.19078 -87.12487 2542 ft 205 kts 125°
2026-05-08 20:17 21.18274 -87.11219 2386 ft 205 kts 124°
2026-05-08 20:17 21.17487 -87.09961 2235 ft 202 kts 124°
2026-05-08 20:17 21.16705 -87.08705 1989 ft 199 kts 124°
2026-05-08 20:17 21.15945 -87.07480 1922 ft 201 kts 124°
2026-05-08 20:18 21.15163 -87.06222 1925 ft 203 kts 124°
2026-05-08 20:18 21.14374 -87.04951 1934 ft 202 kts 124°
2026-05-08 20:18 21.13615 -87.03730 1944 ft 187 kts 124°
2026-05-08 20:18 21.12913 -87.02598 1918 ft 178 kts 124°
2026-05-08 20:19 21.12229 -87.01497 1912 ft 176 kts 124°
2026-05-08 20:19 21.11549 -87.00404 1927 ft 177 kts 124°
2026-05-08 20:19 21.10868 -86.99309 1934 ft 177 kts 124°
2026-05-08 20:19 21.10194 -86.98223 1901 ft 164 kts 124°
2026-05-08 20:20 21.09589 -86.97250 1720 ft 151 kts 124°
2026-05-08 20:20 21.09020 -86.96334 1553 ft 143 kts 123°
2026-05-08 20:20 21.08471 -86.95451 1371 ft 140 kts 125°
2026-05-08 20:20 21.07938 -86.94595 1193 ft 138 kts 124°
2026-05-08 20:21 21.07400 -86.93729 1009 ft 139 kts 124°
2026-05-08 20:21 21.06877 -86.92889 857 ft 129 kts 124°
2026-05-08 20:21 21.06392 -86.92110 709 ft 125 kts 125°
2026-05-08 20:21 21.05914 -86.91339 524 ft 122 kts 125°
2026-05-08 20:22 21.05439 -86.90578 377 ft 121 kts 125°
2026-05-08 20:22 21.04972 -86.89826 239 ft 120 kts 125°
2026-05-08 20:22 21.04503 -86.89072 84 ft 120 kts 126°
2026-05-08 20:22 21.04054 -86.88348 29 ft 107 kts 125°
2026-05-08 20:23 21.03687 -86.87763 27 ft 79 kts 124°
2026-05-08 20:23 21.03468 -86.87416 27 ft 40 kts 122°
2026-05-08 20:23 21.03379 -86.87247 27 ft 15 kts 92°
2026-05-08 20:23 21.03452 -86.87172 27 ft 13 kts 31°
2026-05-08 20:24 21.03481 -86.87114 27 ft 10 kts 111°
2026-05-08 20:24 21.03433 -86.87035 27 ft 14 kts 124°
2026-05-08 20:24 21.03368 -86.86934 27 ft 16 kts 122°
2026-05-08 20:24 21.03298 -86.86820 27 ft 18 kts 123°
2026-05-08 20:25 21.03317 -86.86726 27 ft 16 kts 37°
2026-05-08 20:25 21.03419 -86.86649 27 ft 19 kts 35°
2026-05-08 20:25 21.03511 -86.86585 27 ft 10 kts 33°
2026-05-08 20:25 21.03508 -86.86515 27 ft 12 kts 125°
2026-05-08 20:26 21.03458 -86.86435 27 ft 9 kts 125°
2026-05-08 20:26 21.03425 -86.86432 27 ft 3 kts 216°
2026-05-08 20:26 21.03389 -86.86455 27 ft 7 kts 179°
2026-05-08 20:26 21.03370 -86.86433 27 ft 1 kts 123°
2026-05-08 20:27 21.03369 -86.86431 27 ft 0 kts 123°